Le nostre stazioni meteo in Italia

Pubblicità
Il mio iltempo24.it
Bolzano, Italia (16020): Temperatura & dewpoint: 30.05.2020 20:00:00 - 05.06.2020 20:00:00 (CEST)Bolzano, Italia (16020): velocità del vento: 30.05.2020 20:00:00 - 05.06.2020 20:00:00 (CEST)Bolzano, Italia (16020): direzione del vento: 30.05.2020 20:00:00 - 05.06.2020 20:00:00 (CEST)Bolzano, Italia (16020): visibility: 30.05.2020 20:00:00 - 05.06.2020 20:00:00 (CEST)
Data & Tempo tt [°C] td [°C] ff [km/h] ff [kn] dd vv [km]
05.06.2020 20:00:00 23,0 10,0 15 8 SSE 10
05.06.2020 19:00:00 23,0 11,0 11 6 S 10
05.06.2020 18:00:00 24,0 10,0 13 7 SSE 10
05.06.2020 17:00:00 26,0 7,0 4 2 - 10
05.06.2020 16:00:00 24,0 9,0 13 7 NO 10
05.06.2020 15:00:00 25,0 9,0 9 5 S 10
05.06.2020 14:00:00 24,0 14,0 5 3 - 10
05.06.2020 13:00:00 23,0 11,0 4 2 - 10
05.06.2020 12:00:00 21,0 10,0 4 2 - 10
05.06.2020 11:00:00 20,0 11,0 8 4 - 10
05.06.2020 10:00:00 17,0 12,0 5 3 - 10
05.06.2020 09:00:00 15,0 12,0 8 4 - 10
05.06.2020 08:00:00 14,0 12,0 2 1 - 10
05.06.2020 07:00:00 13,0 12,0 0 0 N 10
05.06.2020 06:00:00 - - - - - -
05.06.2020 05:00:00 - - - - - -
05.06.2020 04:00:00 - - - - - -
05.06.2020 03:00:00 - - - - - -
05.06.2020 02:00:00 - - - - - -
05.06.2020 01:00:00 - - - - - -
05.06.2020 00:00:00 - - - - - -
04.06.2020 23:00:00 16,0 15,0 2 1 - 6
04.06.2020 22:00:00 15,0 14,0 4 2 - 10
04.06.2020 21:00:00 16,0 13,0 4 2 - 10
04.06.2020 20:00:00 16,0 13,0 9 5 S 10
04.06.2020 19:00:00 17,0 13,0 9 5 S 10
04.06.2020 18:00:00 19,0 12,0 9 5 SSE 10
04.06.2020 17:00:00 20,0 12,0 9 5 S 10
04.06.2020 16:00:00 18,0 13,0 11 6 S 10
04.06.2020 15:00:00 19,0 13,0 15 8 S 10
04.06.2020 14:00:00 19,0 14,0 11 6 SSE 10
04.06.2020 13:00:00 18,0 15,0 9 5 SSE 10
04.06.2020 12:00:00 18,0 14,0 2 1 - 9
04.06.2020 11:00:00 18,0 13,0 11 6 S 10
04.06.2020 10:00:00 19,0 11,0 9 5 S 10
04.06.2020 09:00:00 19,0 12,0 5 3 - 10
04.06.2020 08:00:00 20,0 11,0 5 3 - 10
04.06.2020 07:00:00 18,0 12,0 4 2 - 10
04.06.2020 06:00:00 - - - - - -
04.06.2020 05:00:00 - - - - - -
04.06.2020 04:00:00 - - - - - -
04.06.2020 03:00:00 - - - - - -
04.06.2020 02:00:00 - - - - - -
04.06.2020 01:00:00 - - - - - -
04.06.2020 00:00:00 - - - - - -
03.06.2020 23:00:00 21,0 10,0 5 3 - 10
03.06.2020 22:00:00 21,0 10,0 5 3 - 10
03.06.2020 21:00:00 22,0 10,0 9 5 S 10
03.06.2020 20:00:00 24,0 12,0 9 5 S 10
03.06.2020 19:00:00 25,0 11,0 13 7 SSE 10
03.06.2020 18:00:00 24,0 11,0 21 11 SSE 10
03.06.2020 17:00:00 26,0 9,0 16 9 SSE 10
03.06.2020 16:00:00 28,0 10,0 21 11 S 10
03.06.2020 15:00:00 27,0 8,0 11 6 SSE 10
03.06.2020 14:00:00 27,0 8,0 9 5 SSE 10
03.06.2020 13:00:00 26,0 10,0 8 4 SSE 10
03.06.2020 12:00:00 24,0 8,0 4 2 - 10
03.06.2020 11:00:00 23,0 9,0 4 2 - 10
03.06.2020 10:00:00 21,0 9,0 4 2 - 10
03.06.2020 09:00:00 19,0 8,0 4 2 - 10
03.06.2020 08:00:00 16,0 8,0 4 2 - 10
03.06.2020 07:00:00 14,0 8,0 4 2 - 10
03.06.2020 06:00:00 - - - - - -
03.06.2020 05:00:00 - - - - - -
03.06.2020 04:00:00 - - - - - -
03.06.2020 03:00:00 - - - - - -
03.06.2020 02:00:00 - - - - - -
03.06.2020 01:00:00 - - - - - -
03.06.2020 00:00:00 - - - - - -
02.06.2020 23:00:00 21,0 9,0 9 5 S 10
02.06.2020 22:00:00 23,0 9,0 16 9 SSE 10
02.06.2020 21:00:00 23,0 9,0 16 9 SSE 10
02.06.2020 20:00:00 25,0 10,0 16 9 S 10
02.06.2020 19:00:00 30,0 -2,0 13 7 - 10
02.06.2020 18:00:00 30,0 -3,0 15 8 - 10
02.06.2020 17:00:00 30,0 -2,0 15 8 NE 10
02.06.2020 16:00:00 31,0 5,0 11 6 SO 10
02.06.2020 15:00:00 29,0 4,0 4 2 - 10
02.06.2020 14:00:00 28,0 9,0 5 3 - 10
02.06.2020 13:00:00 26,0 10,0 5 3 - 10
02.06.2020 12:00:00 24,0 10,0 4 2 - 10
02.06.2020 11:00:00 23,0 9,0 4 2 - 10
02.06.2020 10:00:00 20,0 11,0 4 2 - 10
02.06.2020 09:00:00 18,0 10,0 5 3 - 10
02.06.2020 08:00:00 14,0 11,0 0 0 N 10
02.06.2020 07:00:00 13,0 10,0 4 2 - 10
02.06.2020 06:00:00 - - - - - -
02.06.2020 05:00:00 - - - - - -
02.06.2020 04:00:00 - - - - - -
02.06.2020 03:00:00 - - - - - -
02.06.2020 02:00:00 - - - - - -
02.06.2020 01:00:00 - - - - - -
02.06.2020 00:00:00 - - - - - -
01.06.2020 23:00:00 20,0 9,0 9 5 S 10
01.06.2020 22:00:00 21,0 9,0 9 5 S 10
01.06.2020 21:00:00 23,0 9,0 16 9 SSE 10
01.06.2020 20:00:00 24,0 8,0 18 10 S 10
01.06.2020 19:00:00 26,0 8,0 21 11 S 10
01.06.2020 18:00:00 27,0 8,0 21 11 S 10
01.06.2020 17:00:00 28,0 8,0 21 11 S 10
01.06.2020 16:00:00 28,0 8,0 16 9 S 10
01.06.2020 15:00:00 27,0 6,0 15 8 S 10
01.06.2020 14:00:00 26,0 8,0 11 6 S 10
01.06.2020 13:00:00 24,0 7,0 8 4 S 10
01.06.2020 12:00:00 23,0 7,0 5 3 - 10
01.06.2020 11:00:00 21,0 7,0 5 3 - 10
01.06.2020 10:00:00 19,0 8,0 4 2 - 10
01.06.2020 09:00:00 17,0 7,0 2 1 - 10
01.06.2020 08:00:00 10,0 8,0 4 2 - 10
01.06.2020 07:00:00 9,0 7,0 4 2 - 10
01.06.2020 06:00:00 - - - - - -
01.06.2020 05:00:00 - - - - - -
01.06.2020 04:00:00 - - - - - -
01.06.2020 03:00:00 - - - - - -
01.06.2020 02:00:00 - - - - - -
01.06.2020 01:00:00 - - - - - -
01.06.2020 00:00:00 - - - - - -
31.05.2020 23:00:00 17,0 8,0 5 3 - 10
31.05.2020 22:00:00 18,0 9,0 5 3 - 10
31.05.2020 21:00:00 19,0 9,0 9 5 ESE 10
31.05.2020 20:00:00 20,0 9,0 9 5 SSE 10
31.05.2020 19:00:00 22,0 8,0 11 6 S 10
31.05.2020 18:00:00 22,0 8,0 13 7 S 10
31.05.2020 17:00:00 23,0 8,0 13 7 S 10
31.05.2020 16:00:00 23,0 7,0 8 4 S 10
31.05.2020 15:00:00 23,0 7,0 9 5 S 10
31.05.2020 14:00:00 22,0 7,0 11 6 S 10
31.05.2020 13:00:00 21,0 9,0 11 6 S 10
31.05.2020 12:00:00 20,0 8,0 9 5 SSE 10
31.05.2020 11:00:00 18,0 9,0 8 4 - 10
31.05.2020 10:00:00 16,0 9,0 4 2 - 10
31.05.2020 09:00:00 14,0 11,0 2 1 - 10
31.05.2020 08:00:00 14,0 10,0 2 1 - 10
31.05.2020 07:00:00 14,0 9,0 8 4 N 10
31.05.2020 06:00:00 - - - - - -
31.05.2020 05:00:00 - - - - - -
31.05.2020 04:00:00 - - - - - -
31.05.2020 03:00:00 - - - - - -
31.05.2020 02:00:00 - - - - - -
31.05.2020 01:00:00 - - - - - -
31.05.2020 00:00:00 - - - - - -
30.05.2020 23:00:00 16,0 11,0 5 3 - 10
30.05.2020 22:00:00 18,0 9,0 4 2 - 10
30.05.2020 21:00:00 - - - - - -
30.05.2020 20:00:00 18,0 10,0 5 3 - 10

tt = Temperatura
td = dewpoint
ff = velocità del vento
dd = direzione del vento
vv = visibility

Stazioni seguenti

WeatherPro
AMSI
MeteoEarth